TimeEET,TemperatureF,Dew PointF,Humidity,Sea Level PressureIn,VisibilityMPH,Wind Direction,Wind SpeedMPH,Gust SpeedMPH,PrecipitationIn,Events,Conditions,WindDirDegrees,DateUTC
12:20 AM,55.4,51.8,88,29.95,6.2,SSE,4.6,-,N/A,,Mostly Cloudy,150,2014-03-26 22:20:00
12:50 AM,55.4,51.8,88,29.95,6.2,Calm,Calm,-,N/A,,Mostly Cloudy,0,2014-03-26 22:50:00
1:50 AM,53.6,50.0,88,29.95,6.2,Variable,3.5,-,N/A,,Mostly Cloudy,0,2014-03-26 23:50:00
2:00 AM,54,50,80,29.96,6,,3.5,,,,Partly Cloudy,,2014-03-27 00:00:00
2:50 AM,51.8,48.2,88,29.95,6.2,Calm,Calm,-,N/A,,Mostly Cloudy,0,2014-03-27 00:50:00
3:20 AM,51.8,48.2,88,29.92,6.2,Calm,Calm,-,N/A,,Mostly Cloudy,0,2014-03-27 01:20:00
3:50 AM,50.0,46.4,87,29.92,6.2,Calm,Calm,-,N/A,,Mostly Cloudy,0,2014-03-27 01:50:00
4:20 AM,50.0,46.4,87,29.92,6.2,Calm,Calm,-,N/A,,Mostly Cloudy,0,2014-03-27 02:20:00
4:50 AM,50.0,46.4,87,29.89,6.2,Variable,3.5,-,N/A,,Mostly Cloudy,0,2014-03-27 02:50:00
5:00 AM,49,46,84,29.91,6,,3.5,,,,Partly Cloudy,,2014-03-27 03:00:00
5:20 AM,50.0,46.4,87,29.89,6.2,Calm,Calm,-,N/A,,Mostly Cloudy,0,2014-03-27 03:20:00
5:50 AM,50.0,46.4,87,29.89,6.2,Variable,3.5,-,N/A,,Mostly Cloudy,0,2014-03-27 03:50:00
6:20 AM,48.2,44.6,87,29.89,6.2,Calm,Calm,-,N/A,,Mostly Cloudy,0,2014-03-27 04:20:00
6:50 AM,46.4,44.6,93,29.89,6.2,Calm,Calm,-,N/A,,Mostly Cloudy,0,2014-03-27 04:50:00
7:20 AM,48.2,44.6,87,29.89,6.2,Calm,Calm,-,N/A,,Mostly Cloudy,0,2014-03-27 05:20:00
7:50 AM,53.6,48.2,82,29.86,6.2,Calm,Calm,-,N/A,,Mostly Cloudy,0,2014-03-27 05:50:00
8:00 AM,54,49,77,29.88,6,Calm,Calm,,,,Scattered Clouds,,2014-03-27 06:00:00
8:20 AM,57.2,50.0,77,29.86,6.2,Calm,Calm,-,N/A,,Mostly Cloudy,0,2014-03-27 06:20:00
8:50 AM,59.0,48.2,67,29.86,6.2,NNW,4.6,-,N/A,,Mostly Cloudy,340,2014-03-27 06:50:00
9:20 AM,59.0,48.2,67,29.86,6.2,SW,4.6,-,N/A,,Mostly Cloudy,220,2014-03-27 07:20:00
9:50 AM,60.8,50.0,68,29.86,6.2,Calm,Calm,-,N/A,,Mostly Cloudy,0,2014-03-27 07:50:00
10:20 AM,60.8,50.0,68,29.86,6.2,Calm,Calm,-,N/A,,Mostly Cloudy,0,2014-03-27 08:20:00
10:50 AM,66.2,48.2,52,29.86,6.2,Calm,Calm,-,N/A,,Mostly Cloudy,0,2014-03-27 08:50:00
11:00 AM,67,48,39,29.87,6,Calm,Calm,,,,Scattered Clouds,,2014-03-27 09:00:00
11:20 AM,66.2,48.2,52,29.86,6.2,Calm,Calm,-,N/A,,Mostly Cloudy,0,2014-03-27 09:20:00
11:50 AM,66.2,50.0,56,29.83,6.2,North,4.6,-,N/A,,Mostly Cloudy,350,2014-03-27 09:50:00
12:20 PM,66.2,50.0,56,29.83,6.2,North,4.6,-,N/A,,Mostly Cloudy,350,2014-03-27 10:20:00
12:50 PM,69.8,48.2,46,29.80,6.2,ESE,6.9,-,N/A,,Overcast,120,2014-03-27 10:50:00
1:20 PM,69.8,48.2,46,29.80,6.2,SE,6.9,-,N/A,,Overcast,140,2014-03-27 11:20:00
1:50 PM,69.8,50.0,49,29.77,6.2,South,11.5,-,N/A,,Overcast,170,2014-03-27 11:50:00
2:00 PM,70,49,36,29.80,6,South,11.5,,,,Overcast,170,2014-03-27 12:00:00
2:20 PM,69.8,50.0,49,29.77,6.2,SSW,9.2,-,N/A,,Overcast,200,2014-03-27 12:20:00
2:50 PM,68.0,51.8,56,29.80,6.2,SSW,11.5,-,N/A,,Overcast,200,2014-03-27 12:50:00
3:20 PM,66.2,55.4,68,29.80,6.2,South,13.8,-,N/A,,Overcast,180,2014-03-27 13:20:00
3:50 PM,66.2,53.6,64,29.80,6.2,South,18.4,-,N/A,,Overcast,170,2014-03-27 13:50:00
4:20 PM,66.2,53.6,64,29.80,6.2,South,18.4,-,N/A,,Overcast,170,2014-03-27 14:20:00
4:50 PM,64.4,55.4,73,29.77,6.2,SSE,23.0,-,N/A,,Overcast,160,2014-03-27 14:50:00
5:00 PM,65,54,60,29.78,6,SSE,23.0,,,,Overcast,160,2014-03-27 15:00:00
5:20 PM,64.4,55.4,73,29.77,6.2,South,18.4,-,N/A,,Overcast,170,2014-03-27 15:20:00
5:50 PM,64.4,55.4,73,29.77,6.2,South,13.8,-,N/A,,Mostly Cloudy,170,2014-03-27 15:50:00
6:20 PM,64.4,55.4,73,29.77,6.2,South,13.8,-,N/A,,Mostly Cloudy,170,2014-03-27 16:20:00
6:50 PM,62.6,57.2,82,29.80,6.2,South,11.5,-,N/A,,Mostly Cloudy,180,2014-03-27 16:50:00
7:20 PM,59.0,50.0,72,29.80,6.2,West,11.5,-,N/A,,Scattered Clouds,260,2014-03-27 17:20:00
7:50 PM,57.2,50.0,77,29.80,6.2,SSW,4.6,-,N/A,,Partly Cloudy,210,2014-03-27 17:50:00
8:00 PM,58,50,67,29.82,6,SSW,4.6,,,,Scattered Clouds,210,2014-03-27 18:00:00
8:20 PM,57.2,48.2,72,29.83,6.2,SW,6.9,-,N/A,,Partly Cloudy,220,2014-03-27 18:20:00
8:50 PM,55.4,48.2,77,29.83,6.2,SW,4.6,-,N/A,,Partly Cloudy,220,2014-03-27 18:50:00
9:20 PM,55.4,48.2,77,29.83,6.2,SW,4.6,-,N/A,,Partly Cloudy,220,2014-03-27 19:20:00
9:50 PM,50.0,46.4,87,29.86,6.2,Calm,Calm,-,N/A,,Partly Cloudy,0,2014-03-27 19:50:00
10:20 PM,48.2,42.8,82,29.86,6.2,Calm,Calm,-,N/A,,Partly Cloudy,0,2014-03-27 20:20:00
10:50 PM,48.2,44.6,87,29.86,6.2,Calm,Calm,-,N/A,,Partly Cloudy,0,2014-03-27 20:50:00
11:00 PM,48,45,85,29.88,6,Calm,Calm,,,,Scattered Clouds,,2014-03-27 21:00:00
11:20 PM,48.2,44.6,87,29.86,6.2,Calm,Calm,-,N/A,,Partly Cloudy,0,2014-03-27 21:20:00
11:50 PM,48.2,44.6,87,29.89,6.2,Calm,Calm,-,N/A,,Partly Cloudy,0,2014-03-27 21:50:00